{"data":{"norad_id":63902,"epoch":"2026-05-24T22:33:10.447200Z","epoch_age_seconds":70495,"freshness":"FRESH","line1":"1 63902U 25095N   26144.93970425  .00013960  00000+0  51564-3 0  9999","line2":"2 63902  43.0000 105.2159 0000876 277.9819  82.0933 15.27593866 59445","mean_motion":15.27593866,"eccentricity":8.76e-5,"inclination_deg":43,"raan_deg":105.2159,"arg_perigee_deg":277.9819,"mean_anomaly_deg":82.0933,"bstar":0.00051564,"rev_number":5944,"period_min":94.265893052493,"perigee_km":482.40654029654,"apogee_km":483.60861282636,"semimajor_km":6861.1445765614,"source":"CELESTRAK","updated_at":"2026-05-25T13:38:20.177404Z"}}